FW1737 Weather Reports


time (UTC)temp
C
wind
direction
speed
KPH
gust
KPH
rain 1hr
cm
rain 24hr
cm
rain mn
cm
humidity
%
barometer
mb
20260505031559 9 217 8.0 19.3 0.00 1.27 0.00 77 1005.1
20260505030053 9 232 9.7 24.1 0.00 1.27 0.00 76 1005.0
20260505024554 10 221 8.0 27.4 0.00 1.42 0.03 76 1004.8
20260505023051 10 255 14.5 27.4 0.00 1.42 0.03 75 1004.8
20260505021552 10 319 8.0 27.4 0.00 1.42 0.03 74 1004.5
20260505020054 10 248 8.0 24.1 0.00 1.42 0.03 75 1004.5
20260505014551 10 244 4.8 19.3 0.00 1.88 0.03 75 1004.4
20260505013045 10 302 11.3 22.5 0.00 1.88 0.03 74 1004.2
20260505011545 10 213 11.3 24.1 0.00 1.88 0.03 73 1004.1
20260505010053 10 241 9.7 22.5 0.00 1.88 0.03 73 1004.2
20260505004542 10 213 11.3 25.7 0.00 2.26 0.03 73 1004.0
20260505003042 10 225 9.7 22.5 0.00 2.26 0.03 71 1003.9
20260505001540 10 238 6.4 14.5 0.00 2.26 0.03 70 1003.8
20260505000044 10 215 6.4 19.3 0.00 2.26 0.03 70 1003.4
20260504234535 10 268 8.0 24.1 0.00 2.39 0.03 70 1003.1
20260504233038 10 239 16.1 32.2 0.00 2.39 0.03 70 1002.8
20260504231531 10 296 12.9 32.2 0.00 2.39 0.03 69 1002.6
20260504230030 11 248 14.5 27.4 0.00 2.39 0.03 53 1002.7
20260504224528 11 209 12.9 30.6 0.00 2.51 0.03 52 1002.2
20260504223026 11 213 6.4 17.7 0.00 2.51 0.03 56 1002.1
20260504221524 11 225 4.8 12.9 0.00 2.51 0.03 55 1002.0
20260504220024 12 238 8.0 12.9 0.00 2.51 0.03 56 1001.9
20260504214523 12 262 6.4 22.5 0.00 2.54 0.03 56 1001.8
20260504213021 12 312 6.4 22.5 0.00 2.54 0.03 55 1001.8
20260504211521 12 248 11.3 22.5 0.00 2.54 0.03 55 1001.6
20260504210019 12 234 12.9 25.7 0.00 2.54 0.03 57 1001.5
20260504204517 13 309 4.8 22.5 0.00 2.57 0.03 60 1001.3
20260504203022 12 248 11.3 24.1 0.00 2.57 0.03 61 1001.1
20260504201510 12 254 11.3 37.0 0.00 2.57 0.03 62 1000.9
20260504200010 12 291 17.7 33.8 0.00 2.57 0.03 61 1000.7
20260504194508 12 266 8.0 37.0 0.00 2.57 0.03 65 1000.5
20260504193013 12 241 14.5 33.8 0.00 2.57 0.03 63 1000.1
20260504191503 11 277 19.3 46.7 0.00 2.57 0.03 62 1000.0
20260504190129 11 309 11.3 35.4 0.00 2.57 0.03 64 1000.0
20260504184557 11 263 19.3 38.6 0.00 2.57 0.03 64 999.8
20260504183055 11 295 17.7 48.3 0.00 2.57 0.03 67 999.7
20260504181554 11 213 24.1 41.8 0.00 2.57 0.03 65 999.4
20260504180050 11 284 19.3 48.3 0.00 2.57 0.03 69 999.3
20260504174547 11 309 20.9 43.5 0.00 2.57 0.03 71 999.1
20260504173044 10 245 22.5 46.7 0.00 2.57 0.03 74 999.2
20260504171541 10 235 24.1 46.7 0.00 2.57 0.03 78 999.0
20260504081523 3 250 27.4 59.5 0.23 2.24 0.71 97 980.3
20260504060120 4 221 8.0 14.5 0.15 1.83 0.30 99 976.6
20260504050106 3 281 6.4 12.9 0.05 1.68 0.15 100 974.9
20260504044550 3 274 6.4 12.9 0.10 1.68 0.15 100 974.5
20260504043056 3 294 4.8 11.3 0.10 1.65 0.13 99 974.3
20260504041548 3 304 3.2 8.0 0.10 1.63 0.10 99 973.7
20260504040047 3 32 1.6 4.8 0.08 1.60 0.08 99 973.6
20260504034544 3 34 0.0 9.7 0.08 1.57 0.05 99 973.8
20260504033042 3 88 16.1 27.4 0.05 1.55 0.03 99 974.2